COSMOS 418

Satellite information

Favourite Embed

Satellite Type and Status

PAYLOADIN ORBIT

Key statistics

Satellite COSMOS 418 at a glance.

Uptime

19904

Days in orbit

Revolutions

≈ 12.5

Per day

Orbit

LEO

Low Earth Orbit

Inclination

74.0

Latest

Satellite identification and parameters

Extended collection of information and parameters for COSMOS 418.

Object identification

Identified? True

Debris? False

Object name: COSMOS 418

International designator: 1971-041H

Object number (NORAD): 5217

Object ID (CCSDS): 5217

Country: COMMONWEALTH OF INDEPENDENT STATES (CIS)

Current information (Y/N): Y

RCS size: MEDIUM

Orbital parameters

Period: 114.78 minutes

Inclination: 74.0184 deg

SMA: 7823.545 km

Apoapsis: 1492.694 km

Periapsis: 1398.125 km

RAAN: 35.8967 deg

Eccentricy: 0.0060439

Argument of periapsis: 222.4604 deg

Mean anomaly: 149.0084 deg

Mean motion: 12.54577272 rev/day

Mean motion (dot): -0.00000019 rev/day2

B* drag term: -0.000014867 1/REarth

Two-line elements (TLE)

Creation date: Nov. 2, 2025, 3:46 p.m.

Reference frame: TEME

Reference center: EARTH

Epoch: Nov. 2, 2025, 11:38 a.m. UTC

TLE line 0: 0 COSMOS 418

TLE line 1: 1 5217U 71041H 25306.48489347 -.00000019 00000-0 -14867-4 0 9993

TLE line 2: 2 5217 74.0184 35.8967 0060439 222.4604 149.0084 12.54577272495513

Live tracking on map

Real-time ground track for satellite COSMOS 418.

In-orbit conjunctions

A list of the most updated potential collisions computed for object COSMOS 418.

Target Orbit TCA Probability of collision Miss distance Type
COSMOS 2499 DEB LEO 2025-05-31 10:55:44 0.00037351 428.0 (m) DEBRIS

Associated space launch

Military communications satellites

COSMOS 418 was lifted into orbit during the mission ‘Kosmos-3M | Strela-1M 9-16’, on board a Kosmos-3M space rocket.

The launch took place on May 7, 1971, 2:20 p.m. from 132/1 (132L).

For more information about the launch, click the button.

Launch to space Kosmos-3M | Strela-1M 9-16
Kosmos-3M | Strela-1M 9-16

Agency: N/A

Status: Launch Successful

Launch date: May 7, 1971, 2:20 p.m. UTC

Rocket: Kosmos-3M

Launch pad: 132/1 (132L)

Location: Plesetsk Cosmodrome, Russian Federation

...

Latest news about this satellite

There are no fresh news available about this satellite. Check back as we update our databases every day.


Newsletter sign-up

Weekly statistics, charts and insights to help you stay on top of the space industry.